This is the latest recevied weather packets stored in our database for station/object KC4GS-13. If no packets are shown the sender has not sent any weather packets the latest 10 day(s).
| Time | Temp. | Humidity | Pressure | Rain* | Wind** | Luminosity | Snow |
|---|---|---|---|---|---|---|---|
| 1787858061 | 23.33° C | 96% | 1017 hPa | 0 mm | - | 138 W/m² | - |
| 1787857756 | 23.33° C | 96% | 1016.9 hPa | 0 mm | - | 161 W/m² | - |
| 1787857452 | 22.78° C | 96% | 1017.1 hPa | 0 mm | - | 133 W/m² | - |
| 1787857145 | 23.33° C | 95% | 1017 hPa | 0 mm | - | 60 W/m² | - |
| 1787856840 | 23.33° C | 95% | 1016.9 hPa | 0 mm | - | 95 W/m² | - |
| 1787856539 | 23.33° C | 95% | 1016.7 hPa | 1.78 mm | - | 88 W/m² | - |
| 1787856234 | 22.78° C | 95% | 1016.8 hPa | 1.78 mm | - | 82 W/m² | - |
| 1787855929 | 22.78° C | 94% | 1016.5 hPa | 0 mm | - | 69 W/m² | - |
| 1787855624 | 22.78° C | 94% | 1016.6 hPa | 0 mm | - | 69 W/m² | - |
| 1787855319 | 22.78° C | 93% | 1016.5 hPa | 0 mm | - | 69 W/m² | - |
| 1787855015 | 23.33° C | 93% | 1016.5 hPa | 0 mm | - | 65 W/m² | - |
| 1787854710 | 23.33° C | 92% | 1016.3 hPa | 0 mm | - | 59 W/m² | - |
| 1787854409 | 23.33° C | 90% | 1016.3 hPa | 1.27 mm | - | 55 W/m² | - |
| 1787854109 | 23.89° C | 89% | 1016.3 hPa | 1.27 mm | - | 51 W/m² | - |
| 1787853804 | 23.89° C | 87% | 1016.2 hPa | 1.78 mm | - | 47 W/m² | - |
| 1787853503 | 24.44° C | 85% | 1016.4 hPa | 1.78 mm | - | 51 W/m² | - |
| 1787853198 | 25.56° C | 81% | 1016.3 hPa | 0 mm | - | 49 W/m² | - |
| 1787852897 | 26.67° C | 79% | 1016.1 hPa | 0 mm | - | 72 W/m² | - |
| 1787852592 | 27.22° C | 76% | 1015.8 hPa | 0 mm | - | 121 W/m² | - |
| 1787852291 | 28.33° C | 74% | 1015.9 hPa | 0 mm | - | 141 W/m² | - |
| 1787851991 | 30° C | 75% | 1016.1 hPa | 0 mm | - | 168 W/m² | - |
| 1787851690 | 31.11° C | 72% | 1016.2 hPa | 0 mm | - | 222 W/m² | - |
| 1787851384 | 31.11° C | 73% | 1016.3 hPa | 0 mm | - | 361 W/m² | - |
| 1787851079 | 30.56° C | 73% | 1016.1 hPa | 0 mm | - | 306 W/m² | - |
| 1787850775 | 31.11° C | 71% | 1016.5 hPa | 0 mm | - | 242 W/m² | - |
* Rain latest hour (hover to see other rain measurements)
** Current wind speed in m/s (hover to see current wind gust speed)